sat.trackr.live / text

‹ back to catalog

ONEWEB-0364

NORAD 49290 · 2021-090M

PAYLOAD ACTIVE UNKNOWN

§ Identity

Operator
Country
UK
Launch date
2021-10-14
Launch site
VOSTO
Launch vehicle
Mass (kg)
RCS (m²)

Purposes: comms

External: N2YO · Heavens-Above · Gunter

§ Orbital elements

Epoch: 2026-09-19T23:23:11.954688Z

Period
109.03 min
Inclination
87.9141°
Eccentricity
0.0001967
Mean motion
13.20769229 rev/d
Perigee alt
1,180.3 km
Apogee alt
1,183.3 km
Semi-major
7,559.9 km
B*
-4.5184e-5
RAAN
255.5370°
Arg perigee
86.9106°
Mean anomaly
273.2252°
Rev number
24,395

§ Raw data

ONEWEB-03641 49290U 21090M   26262.97444392 -.00000005  00000+0 -45184-4 0  99982 49290  87.9141 255.5370 0001967  86.9106 273.2252 13.20769229243953

JSON: /api/v1/satellites/49290 · /tle

For live sub-satellite position, see the globe view (requires WebGL).

§ Visibility from observer

Set your observer location to see the next 7 days of passes ≥ 10°. The values pass through the URL so the page stays shareable.

No JS? Fill the form by hand. The geolocation button needs JavaScript.